Погода в Авнепороге

Россия / Республика Карелия     65°00′28″N   33°45′07″E
темп.,
°C
ветер,
м/с
пор.,
м/с
влажн.,
%
обл.,
%
осадки,
мм/ч
давл.,
гПа
погр.,
м
18 мая, вт
вт1800:00+11юв2686100 0.0 1013108
03:00+11юв3890100 0.0 1013165
06:00+13вюв31082100 0.0 1011286
09:00+19юв51162100 0.0 1009657
12:00+20ююв6106382 0.3 10081094
15:00+24ю5852100 0.3 10071384
18:00+20ююз51071100 0.9 1006541
21:00+17ююз2796100 1.9 1006213
19 мая, ср
ср1900:00+16ююз31097100 6.4 1006393
03:00+15ю2798100 7.2 1006231
06:00+16ю2594100 0.0 1006207
09:00+19ююв357694 0.0 1006512
12:00+23ю4758100 0.0 1006910
15:00+26ю47447 0.0 10051520
18:00+26юв510480 0.0 10021289
21:00+19юз7136673 0.4 1004543
20 мая, чт
чт2000:00+16вюв3987100 2.8 1003265
03:00+15ююв513825 2.8 1002747
06:00+15ю6138662 0.0 1002885
09:00+18ю714708 0.0 10031243
12:00+19юз7135657 0.0 10041444
15:00+19юз7115111 0.0 10051434
18:00+18зюз585458 0.0 10051316
21:00+13з377399 0.0 1006525
21 мая, пт
пт2100:00+11вюв1183100 0.1 100656
03:00+11ссв118681 0.3 1003159
06:00+11св1188100 0.0 1002246
09:00+11с2288100 0.2 1001313
12:00+11всв2393100 0.3 1001379
15:00+12всв2290100 0.3 1000336
18:00+13ссв1185100 0.1 998465
21:00+10всв2398100 5.8 997164
22 мая, сб
сб2200:00+10з3697100 0.5 997522
03:00+8з5994100 1.9 998679
06:00+7з51091100 0.1 1000699
09:00+7з6987100 0.1 1003771
12:00+7з6118085 0.1 1006880
15:00+14з59469 0.1 10071734
18:00+15з474594 0.0 10081917
21:00+11ю246872 0.0 100993